Quillayute, WA

8:03 PM PDT on June 25, 2017 (GMT -0700)
Quillayute

Weather History for KUIL - February, 2014

Change the Weather History Date:

Friday, February 28, 2014

  Actual Average Record
Temperature  
Mean Temperature 47 °F 43 °F  
Max Temperature 58 °F 50 °F 72 °F (1968)
Min Temperature 36 °F 35 °F 15 °F (1971)
Degree Days  
Heating Degree Days 18 22  
Month to date heating degree days 636 640  
Since 1 July heating degree days 3194 3845  
Cooling Degree Days 0 0  
Month to date cooling degree days 0 0  
Year to date cooling degree days 0 0  
Moisture  
Dew Point 34 °F    
Average Humidity 58    
Maximum Humidity 92    
Minimum Humidity 24    
Precipitation  
Precipitation 0.00 in 0.35 in 2.37 in (1994)
Month to date precipitation 10.64 10.35  
Year to date precipitation 22.57 24.96  
Sea Level Pressure  
Sea Level Pressure 29.62 in    
Wind  
Wind Speed 10 mph (ENE)    
Max Wind Speed 26 mph    
Max Gust Speed 38 mph    
Visibility 4 miles    
Events Fog    
T = Trace of Precipitation, MM = Missing Value Source: NWS Daily Summary

Daily Weather History Graph

Daily Weather History Graph

Search for Another Location

Airport or City:

Trip Planner

Search our weather history database for the weather conditions in past years. The results will help you decide how hot, cold, wet, or windy it might be!

Date:

Astronomy

Feb. 28, 2014 Rise Set
Actual Time 7:00 AM PST 6:01 PM PST
Civil Twilight 6:29 AM PST 6:32 PM PST
Nautical Twilight 5:53 AM PST 7:08 PM PST
Astronomical Twilight 5:17 AM PST 7:44 PM PST
Moon 6:19 AM PST (2/28) 5:47 PM PST (2/28)
Length of Visible Light 12h 02m
Length of Day
11h 00m
Waning Crescent, 0% of the Moon is Illuminated
Feb 28
Waning Crescent
Mar 1
New
Mar 8
First Quarter
Mar 16
Full
Mar 23
Last Quarter

Hourly Weather History & Observations

Time (PST) Temp. Windchill Dew Point Humidity Pressure Visibility Wind Dir Wind Speed Gust Speed Precip Events Conditions
12:53 AM 46.0 °F 43.9 °F 41.0 °F 83% 29.73 in 6.0 mi NNE 4.6 mph - N/A   Haze
1:53 AM 41.0 °F 39.0 °F 37.9 °F 89% 29.72 in 2.5 mi North 3.5 mph - N/A   Clear
2:00 AM 42.1 °F 40.2 °F 39.0 °F 89% 29.71 in 5.0 mi NNE 3.5 mph - N/A   Clear
2:53 AM 42.1 °F - 39.0 °F 89% 29.70 in 4.0 mi Calm Calm - N/A   Clear
3:06 AM 39.9 °F 37.8 °F 37.0 °F 89% 29.69 in 1.8 mi NE 3.5 mph - N/A   Clear
3:16 AM 42.1 °F 37.7 °F 39.0 °F 89% 29.68 in 4.0 mi NNE 6.9 mph - N/A   Clear
3:53 AM 42.1 °F 39.2 °F 39.0 °F 89% 29.68 in 6.0 mi NNE 4.6 mph - N/A   Clear
4:28 AM 39.0 °F 35.7 °F 35.1 °F 86% 29.66 in 2.0 mi ESE 4.6 mph - N/A   Partly Cloudy
4:38 AM 39.0 °F 35.7 °F 36.0 °F 89% 29.66 in 5.0 mi East 4.6 mph - N/A   Clear
4:53 AM 37.0 °F 34.5 °F 35.1 °F 93% 29.66 in 4.0 mi NE 3.5 mph - N/A   Clear
5:16 AM 37.9 °F 34.4 °F 35.1 °F 89% 29.65 in 2.5 mi ESE 4.6 mph - N/A   Partly Cloudy
5:18 AM 37.0 °F 33.3 °F 34.0 °F 89% 29.65 in 1.2 mi ESE 4.6 mph - N/A   Partly Cloudy
5:20 AM 37.0 °F 33.3 °F 34.0 °F 89% 29.65 in 0.8 mi ESE 4.6 mph - N/A   Mist
5:31 AM 37.0 °F 31.0 °F 34.0 °F 89% 29.65 in 1.2 mi ENE 8.1 mph - N/A   Partly Cloudy
5:33 AM 37.9 °F 32.1 °F 35.1 °F 89% 29.65 in 2.5 mi ENE 8.1 mph - N/A   Partly Cloudy
5:40 AM 39.0 °F 34.0 °F 36.0 °F 89% 29.65 in 5.0 mi ENE 6.9 mph - N/A   Partly Cloudy
5:53 AM 39.9 °F 37.8 °F 36.0 °F 86% 29.65 in 4.0 mi ENE 3.5 mph - N/A   Clear
6:15 AM 37.9 °F - 35.1 °F 89% 29.64 in 1.5 mi Calm Calm - N/A   Clear
6:22 AM 37.0 °F 34.5 °F 34.0 °F 89% 29.64 in 1.0 mi ESE 3.5 mph - N/A   Clear
6:27 AM 39.0 °F 34.8 °F 36.0 °F 89% 29.64 in 2.0 mi East 5.8 mph - N/A   Clear
6:34 AM 39.0 °F 36.8 °F 36.0 °F 89% 29.65 in 5.0 mi East 3.5 mph - N/A   Partly Cloudy
6:42 AM 37.9 °F - 35.1 °F 89% 29.65 in 1.5 mi Calm Calm - N/A   Scattered Clouds
6:44 AM 37.9 °F - 35.1 °F 89% 29.65 in 1.0 mi Calm Calm - N/A   Mist
6:53 AM 37.9 °F 34.4 °F 36.0 °F 93% 29.65 in 0.8 mi ENE 4.6 mph - N/A   Mist
6:56 AM 37.9 °F 34.4 °F 36.0 °F 93% 29.64 in 1.2 mi ENE 4.6 mph - N/A   Scattered Clouds
6:59 AM 37.9 °F 35.5 °F 36.0 °F 93% 29.64 in 1.5 mi NE 3.5 mph - N/A   Mostly Cloudy
7:02 AM 37.9 °F 35.5 °F 35.1 °F 89% 29.65 in 0.8 mi East 3.5 mph - N/A   Mist
7:10 AM 39.0 °F 36.8 °F 36.0 °F 89% 29.65 in 0.2 mi ENE 3.5 mph - N/A Fog Fog
7:18 AM 37.9 °F 34.4 °F 35.1 °F 89% 29.65 in 0.2 mi NE 4.6 mph - N/A Fog Fog
7:25 AM 37.9 °F 35.5 °F 35.1 °F 89% 29.65 in 0.5 mi NE 3.5 mph - N/A Fog Fog
7:35 AM 39.0 °F - 36.0 °F 89% 29.64 in 1.2 mi Calm Calm - N/A   Partly Cloudy
7:48 AM 39.2 °F 37.0 °F 35.6 °F 87% 29.64 in 2.0 mi East 3.5 mph - N/A   Partly Cloudy
7:53 AM 39.9 °F - 37.0 °F 89% 29.64 in 1.0 mi Calm Calm - N/A   Mist
8:00 AM 41.0 °F 38.0 °F 37.9 °F 89% 29.64 in 0.8 mi East 4.6 mph - N/A   Mist
8:03 AM 41.0 °F 39.0 °F 37.9 °F 89% 29.64 in 1.5 mi East 3.5 mph - N/A   Partly Cloudy
8:05 AM 41.0 °F 38.0 °F 39.0 °F 93% 29.64 in 3.0 mi East 4.6 mph - N/A   Partly Cloudy
8:53 AM 46.0 °F 44.8 °F 41.0 °F 83% 29.64 in 6.0 mi SE 3.5 mph - N/A   Haze
9:53 AM 53.1 °F - 43.0 °F 69% 29.62 in 7.0 mi NE 10.4 mph - N/A   Clear
10:53 AM 55.0 °F - 41.0 °F 59% 29.61 in 6.0 mi NE 12.7 mph - N/A   Haze
11:53 AM 55.9 °F - 41.0 °F 57% 29.59 in 6.0 mi NE 16.1 mph 20.7 mph N/A   Haze
12:53 PM 57.0 °F - 39.0 °F 51% 29.56 in 7.0 mi NE 12.7 mph 21.9 mph N/A   Clear
1:53 PM 57.0 °F - 36.0 °F 45% 29.53 in 7.0 mi NE 17.3 mph 28.8 mph N/A   Clear
2:53 PM 57.0 °F - 34.0 °F 42% 29.52 in 7.0 mi NE 20.7 mph 28.8 mph N/A   Clear
3:53 PM 57.0 °F - 28.9 °F 34% 29.50 in 7.0 mi NE 19.6 mph 29.9 mph N/A   Clear
4:53 PM 55.0 °F - 23.0 °F 29% 29.49 in 8.0 mi NE 13.8 mph 25.3 mph N/A   Clear
5:53 PM 52.0 °F - 19.0 °F 27% 29.48 in 8.0 mi NE 18.4 mph 28.8 mph N/A   Clear
6:53 PM 51.1 °F - 15.1 °F 24% 29.48 in 9.0 mi ENE 15.0 mph 27.6 mph N/A   Clear
7:53 PM 50.0 °F - 17.1 °F 27% 29.49 in 8.0 mi East 10.4 mph 25.3 mph N/A   Clear
8:53 PM 50.0 °F - 16.0 °F 26% 29.50 in 8.0 mi ENE 16.1 mph 24.2 mph N/A   Clear
9:53 PM 48.9 °F - 17.1 °F 28% 29.50 in 8.0 mi ENE 13.8 mph - N/A   Clear
10:53 PM 48.0 °F - 18.0 °F 30% 29.50 in 8.0 mi ENE 11.5 mph 19.6 mph N/A   Clear
11:53 PM 48.0 °F - 18.0 °F 30% 29.51 in 8.0 mi ENE 13.8 mph 23.0 mph N/A   Clear